User: anonymous   Login
Location: Unspecified
(0.0000°N, 0.0000°E)
Time: 22:50:02
(UTC+00:00)
Language:

Himawari 2 - Orbit

View from above orbital plane
View from above orbital plane
View from above satellite
View from above satellite

Ground track
Ground track

The orbit data is extracted from the following two-line orbital elements,

1 12677U 81076A   17112.36658582 -.00000240 +00000-0 +00000-0 0  9997
2 12677 014.1480 336.3315 0010538 244.4087 104.2290 00.99557060098942
Epoch (UTC): 22 April 2017 08:47:53
Eccentricity: 0.0010538
inclination: 14.1480°
perigee height: 35943 km
apogee height: 36032 km
right ascension of ascending node: 336.3315°
argument of perigee: 244.4087°
revolutions per day: 0.99557060
mean anomaly at epoch: 104.2290°
orbit number at epoch: 9894

The dashed part of the orbit path shows where the satellite is in the earth's shadow,  

DLR